Regional Weather Roundup
Issued by NWS Upton, NY

Current Version | Previous Version | Text Only | Print | Product List | Glossary On
Versions: 1 2 3 4 5 6 7 8 9 10 11 12 13 14 15 16 17 18 19 20 21 22 23 24 25 26 27 28 29 30 31 32 33 34 35 36 37 38 39 40 41 42 43 44 45 46 47 48 49 50
336
ASUS41 KOKX 242305
RWROKX

REGIONAL WEATHER ROUNDUP
NATIONAL WEATHER SERVICE NEW YORK NY
700 PM EDT TUE MAY 24 2016

NOTE: "FAIR" INDICATES FEW OR NO CLOUDS BELOW 12,000 FEET WITH NO
SIGNIFICANT WEATHER AND/OR OBSTRUCTIONS TO VISIBILITY.

NYZ071-072-176-178-NJZ106-104-250000-
NEW YORK CITY METRO AREA


CITY           SKY/WX    TMP DP  RH WIND       PRES   REMARKS
CENTRAL PARK   CLOUDY    69  49  48 CALM      29.95R
LAGUARDIA APRT CLOUDY    70  54  56 CALM      29.92R
KENNEDY INTL   CLOUDY    71  48  43 NW6       29.93R
NEWARK/LIBERTY CLOUDY    73  51  46 CALM      29.93R
BRNX BOT. GARD   N/A     66  50  55 CALM      29.95R
TETERBORO      CLOUDY    71  49  45 CALM      29.92R
$$

NYZ177-179-078>081-250000-
LONG ISLAND NEW YORK

CITY           SKY/WX    TMP DP  RH WIND       PRES   REMARKS
FARMINGDALE    CLOUDY    67  58  72 E5        29.93R
ISLIP          CLOUDY    64  60  87 CALM      29.92S
SHIRLEY        CLOUDY    65  58  78 CALM      29.94R
RIVERHEAD        N/A     63  59  88 CALM      29.92F
WESTHAMPTON    CLOUDY    59  57  93 NW3       29.94S
EAST HAMPTON   CLOUDY    59  58  96 CALM      29.92S
MONTAUK POINT    N/A     59  58  96 CALM      29.94R
$$

NYZ052-065-067-250000-
HUDSON VALLEY

CITY           SKY/WX    TMP DP  RH WIND       PRES   REMARKS
WHITE PLAINS   PTSUNNY   64  55  72 SE3       29.94R
NEWBURGH       CLOUDY    66  55  68 VRB6      29.95R
MONTGOMERY     CLOUDY    66  54  65 CALM      29.94R
POUGHKEEPSIE   CLOUDY    68  55  63 CALM      29.92R
ALBANY         CLOUDY    63  55  75 CALM      29.93F
$$

NJZ001-105-106-008-010-013-015-019>022-104-250000-
NEW JERSEY

CITY           SKY/WX    TMP DP  RH WIND       PRES   REMARKS
NEWARK/LIBERTY CLOUDY    73  51  46 CALM      29.93R
TETERBORO      CLOUDY    71  49  45 CALM      29.92R
CALDWELL       CLOUDY    70  52  52 CALM      29.94R
MORRISTOWN     PTSUNNY   68  57  68 CALM      29.94R
SOMERVILLE     CLOUDY    73  53  49 NE3       29.91R
SUSSEX         CLOUDY    69  53  56 CALM      29.95R
ANDOVER          N/A     71  51  49 CALM      29.95R
TRENTON        CLOUDY    75  55  49 E9        29.91R
MILLVILLE      MOSUNNY   76  54  46 VRB3      29.94R
ATLANTIC CITY  MOSUNNY   76  52  43 SW9       29.93R
WRIGHTSTOWN    NOT AVBL
TOMS RIVER     PTSUNNY   75  54  46 E7        29.93R
BELMAR         CLOUDY    67  55  65 S6        29.95S
$$

PAZ047>061-062-071-250000-
EASTERN PENNSYLVANIA

CITY           SKY/WX    TMP DP  RH WIND       PRES   REMARKS
PHILADELPHIA   CLOUDY    81  43  26 W14       29.92R
ALLENTOWN      CLOUDY    81  42  25 N7        29.92R
SCRANTON       MOSUNNY   80  39  23 N10       29.94R
$$

CTZ002-004>006-009-010-012-RIZ004-006-007-MAZ004-011-015-250000-
SOUTHERN NEW ENGLAND
 IN CT

CITY           SKY/WX    TMP DP  RH WIND       PRES   REMARKS
BRADLEY INTL   PTSUNNY   65  56  72 N8        29.92R
HARTFORD       MOSUNNY   68  57  68 N8        29.92S
DANBURY        CLOUDY    65  59  81 NE7       29.95R
WTRBRY/OXFORD  PTSUNNY   61  57  88 CALM      29.96R
BRIDGEPORT     CLOUDY    62  59  90 CALM      29.94R
MERIDEN        PTSUNNY   68  56  65 N3        29.93R
NEW HAVEN      CLOUDY    61  58  90 CALM      29.93R
CHESTER        CLOUDY    61  59  94 CALM      29.93S
GROTON         CLOUDY    58  58 100 SW3       29.92R
WILLIMANTIC    CLOUDY    65  55  70 N6        29.93R

 IN RI

CITY           SKY/WX    TMP DP  RH WIND       PRES   REMARKS
PROVIDENCE     LGT RAIN  57  54  89 N8        29.93R
BLOCK ISLAND   CLOUDY    55  55 100 W7        29.93R FOG
WESTERLY       CLOUDY    60  56  86 CALM      29.93R

 IN MA

CITY           SKY/WX    TMP DP  RH WIND       PRES   REMARKS
BOSTON         CLOUDY    53  51  93 N8        29.95R FOG
WORCESTER      CLOUDY    57  53  86 NE6       29.94R
WESTFIELD      PTSUNNY   66  56  70 N5        29.93R
PROVINCETOWN   CLOUDY    57  53  86 SE5       29.92S
NANTUCKET      FOG       54  52  93 S13       29.89R VSB 1/2
$$

ANZ330-335-338-340-345-350-353-355-250000-
COASTAL MARINE OBSERVATIONS


STATION/POSITION TIME  SKY/WX   TEMP    WIND        PRES    VSBY  WAVE
                                AIR SEA DIR/SP/G                  HT/PER
                 (UTC)          (F)     (DEG/KT/KT) (MB)    (MI)  (FT/S)
NY HARB ENTRANCE 2150            66 59  300/  4/  4 1013.3          2/ 8
20S FIRE ISLAND  2150            57 55  240/  8/ 10 1013.0          3/ 8
GREAT SOUTH BAY  2200            63 65   30/  2/  4   N/A
23 SSW MONTAUK P 2150            56 55  270/  4/  6 1012.5          3/ 8
15 E BARNEGAT LI 2222               56                N/A           3/ 8
HUDSON CANYON    2150            55 54              1013.8          3/ 9
KINGS POINT      2200            64                   N/A
EXECUTION ROCKS  NOT AVBL
CENTRAL LI SOUND 2200            59      CALM  /  2   N/A           0
EASTERN LI SOUND 2200            56 52  250/  4/  8   N/A
ROBBINS REEF     2200            70                   N/A
$$


>>>>>>>>>>>>>>>>>>>>>>>>>>>> KEY <<<<<<<<<<<<<<<<<<<<<<<<<<<
>                                                          <
>     SKY/WX - SKY CONDITION/PRESENT WEATHER               <
>     TMP    - TEMPERATURE IN FAHRENHEIT                   <
>     DP     - DEWPOINT IN FAHRENHEIT                      <
>     RH     - RELATIVE HUMIDITY IN PERCENT                <
>     WIND   - DIRECTION AND SPEED IN MPH                  <
>     PRES   - MEAN SEA LEVEL PRESSURE IN INCHES OF HG     <
>     WCI    - WIND CHILL INDEX                            <
>     VSB    - VISIBILITY IN MILES                         <
>     HX     - HEAT INDEX                                  <
>     TC     - TEMPERATURE IN CELSIUS                      <
>     VRB    - VARIABLE WIND DIRECTION                     <
>                                                          <
>>>>>>>>>>>>>>>>>>>>>>>>>>>> KEY <<<<<<<<<<<<<<<<<<<<<<<<<<<






USA.gov is the U.S. government's official web portal to all federal, state and local government web resources and services.